Miscellaneous Local Product
Issued by NWS North Platte, NE

Home | Current Version | Previous Version | Text Only | Print | Product List | Glossary On
Versions: 1 2 3 4 5 6 7 8 9 10 11 12 13 14 15 16 17 18 19 20 21 22 23 24 25 26 27 28 29 30 31 32 33 34 35 36 37 38 39 40 41 42 43 44 45 46 47 48 49 50
202
AXUS43 KLBF 251310
MISLBF


WESTERN AND NORTH CENTRAL NEBRASKA HOURLY WEATHER ROUNDUP
NATIONAL WEATHER SERVICE NORTH PLATTE NE
800 AM CDT WED APR 25 2018

NOTE: "FAIR" INDICATES FEW OR NO CLOUDS BELOW 12,000 FEET WITH NO
SIGNIFICANT WEATHER AND/OR OBSTRUCTIONS TO VISIBILITY.

NOTE: STATIONS NOT REPORTING VARIABLES SUCH AS SKY/WEATHER OR
PRESSURE ARE PROVIDED BY RAWS AND APRS NETWORKS AND ARE NOT UNDER
NATIONAL WEATHER SERVICE QUALITY CONTROL.

...OBSERVATIONS IN AND NEAR THE EASTERN PANHANDLE OF NEBRASKA...

CITY           SKY/WX    TMP DP  RH WIND       PRES   REMARKS
PINE RIDGE     SUNNY     24  23  96 CALM      30.32S
GORDON         FAIR      31  26  84 W3        30.32S
CHADRON        SUNNY     27  24  89 SW5       30.32F WCI  22
ALLIANCE       SUNNY     25  24  96 W7        30.32S WCI  17
SIDNEY         SUNNY     30  27  88 NW8       30.35R WCI  22
CRESCENT LAKE    N/A     33  28  81 NW5         N/A  WCI  28
$$

...OBSERVATIONS IN NORTHERN NEBRASKA AND FAR SOUTHERN SOUTH DAKOTA...

CITY           SKY/WX    TMP DP  RH WIND       PRES   REMARKS
WINNER         FAIR      37  29  72 W6        30.31F WCI  32
VALENTINE      SUNNY     33  29  85 W8        30.32R WCI  26
AINSWORTH      SUNNY     34  32  92 W6        30.32R WCI  29
O`NEILL        MOSUNNY   39  36  88 NW8       30.32S WCI  33
THEDFORD       SUNNY     36  32  87 W5        30.33S WCI  32
BROKEN BOW     CLOUDY    40  35  83 NW6       30.31R
ORD            CLOUDY    40  38  93 NW5       30.30S
ALBION         CLOUDY    42  36  80 N7        30.30R
VALENTINE NWR    N/A     50  29  45 W5          N/A
HALSEY           N/A     35  34  97 NW3         N/A
BUTTE            N/A     34  30  86 CALM        N/A
CHAMBERS         N/A     41  38  91 N3          N/A
EWING            N/A     38  36  92 NW5         N/A  WCI  34
$$

...OBSERVATIONS IN SOUTHWEST NEBRASKA AND FAR NORTHEAST COLORADO...

CITY           SKY/WX    TMP DP  RH WIND       PRES   REMARKS
WRAY           FAIR      32  30  93 NW5       30.36F WCI  27
HOLYOKE        FAIR      34  30  86 W8        30.36R WCI  27
IMPERIAL       SUNNY     34  30  85 W8        30.35R WCI  27
OGALLALA       SUNNY     36  31  82 NW10      30.34S WCI  29
NORTH PLATTE   MOSUNNY   37  32  82 NW8       30.33S WCI  31
MCCOOK         PTSUNNY   39  35  86 NW9       30.34S WCI  33
LEXINGTON      CLOUDY    40  37  87 NE3       30.33R
STAPLETON        N/A     36  33  88 CALM        N/A
GOTHENBURG       N/A     38  33  84 NW5         N/A  WCI  34
CALLAWAY         N/A     37  35  94 NW7         N/A  WCI  31
$$

...OBSERVATIONS IN CENTRAL LINCOLN COUNTY AREA...

CITY           SKY/WX    TMP DP  RH WIND       PRES   REMARKS
N.P. AIRPORT   MOSUNNY   37  32  82 NW8       30.33S WCI  31
N.P. DOWNTOWN    N/A     38  33  83 CALM        N/A
N.P. SOUTHEAST   N/A     37  32  81 NW3         N/A
N.P. HILLCREST   N/A     38  33  84 NW5         N/A  WCI  34
$$

...OBSERVATIONS ACROSS THE ROCKIES AND WESTERN HIGH PLAINS...

CITY           SKY/WX    TMP DP  RH WIND       PRES   REMARKS
RAPID CITY     SUNNY     29  23  78 SE5       30.25F WCI  24
SCOTTSBLUFF    SUNNY     28  26  92 CALM      30.34F
CHEYENNE       CLEAR     25  22  88 W6        30.32S WCI  18
DENVER         PTCLDY    32  26  78 S8        30.34S WCI  25
BERTHOUD PASS  FAIR      10   0  61 N7        30.39R WCI   0
MONARCH PASS   CLEAR     23  -9  23 NW8       30.51S WCI  14
ASPEN          CLEAR     24  16  71 SW7       30.38R WCI  16
STEAMBOAT      FAIR      23  20  89 CALM      30.40S
LARAMIE        CLEAR     20  17  88 E5        30.33S WCI  13
CASPER         CLEAR     33  22  63 SW21G28   30.29F WCI  21
$$

...OBSERVATIONS ACROSS THE NORTHERN PLAINS...

CITY           SKY/WX    TMP DP  RH WIND       PRES   REMARKS
BISMARCK       SUNNY     33  30  88 CALM      30.21F
FARGO          FAIR      38  31  76 S9        30.25F WCI  31
PIERRE         SUNNY     32  30  92 SW8       30.28F WCI  25
SIOUX FALLS    MOSUNNY   37  29  72 N3        30.29R
$$

...OBSERVATIONS ACROSS THE CENTRAL AND SOUTHERN PLAINS...

CITY           SKY/WX    TMP DP  RH WIND       PRES   REMARKS
OMAHA          LGT RAIN  43  40  89 N14       30.24R
GRAND ISLAND   CLOUDY    41  37  86 N10       30.31R
KANSAS CITY    LGT RAIN  50  45  83 NW6       30.16R
WICHITA        LGT RAIN  45  44  97 NW13      30.22R
DODGE CITY     CLOUDY    38  34  85 N13G24    30.29S WCI  30
OKLAHOMA CITY  HVY RAIN  45  44  97 N21       30.21R FOG
DALLAS         CLOUDY    64  54  69 NW15      30.10R
AMARILLO       CLOUDY    37  35  92 N18       30.34R WCI  27
$$




USA.gov is the U.S. government's official web portal to all federal, state and local government web resources and services.